Flag for Germany Weather past 2 weeks in Meiningen, Thuringia, Germany

Now
47 °F

Overcast.


Feels Like: 46 °F
Forecast: 39 / 58 °F
Wind: 3 mph from Northwest

Location: Meiningen

Current Time: Sep 23, 2014 at 5:27:01 AM

Latest Report: Sep 23, 2014 at 4:00 AM


Visibility: 25 mi

Pressure: 30.11 "Hg

Humidity: 78%

Dew point: 41 °F

Location of MeiningenLocation

Historic Weather in Meiningen — Graph

°F

Meiningen temperature yesterday

Maximum temperature yesterday: 51 °F (at 12:00 PM)
Minimum temperature yesterday: 44 °F (at 3:00 PM)
Average temperature yesterday: 49 °F

Past Weeks' High & Low Weather Summary

 TemperatureHumidityPressure
High71 °F (Sep 17, 4:00 PM)99% (Sep 8, 5:00 AM)30.19 "Hg (Sep 8, 5:00 AM)
Low44 °F (Sep 22, 3:00 PM)53% (Sep 17, 5:00 PM)29.88 "Hg (Sep 17, 6:00 PM)
Average57 °F87%30.02 "Hg
* Reported Sep 8 4:00 AM — Sep 23 4:00 AM, Meiningen, Weather by CustomWeather, © 2014

Note: Actual official high and low records may vary slightly from our data, if they occured in-between our weather recording intervals... More about our weather records

Advertising

Meiningen weather history for previous 24 hours

 ConditionsComfort  
Time TempWeatherWind HumidityBarometerVisibility
4:00 AM
Sep 23
47 °FOvercast.3 mph78%30.11 "Hg25 mi
3:00 AM47 °FOvercast.3 mph79%30.11 "Hg22 mi
2:00 AM47 °FOvercast.5 mph77%30.11 "Hg22 mi
1:00 AM48 °FOvercast.6 mph76%30.10 "Hg19 mi
12:00 AM49 °FOvercast.7 mph77%30.10 "Hg19 mi
10:00 PM
Sep 22
49 °FOvercast.5 mph80%30.08 "Hg19 mi
9:00 PM49 °FOvercast.7 mph78%30.07 "Hg17 mi
8:00 PM48 °FSprinkles. Passing clouds.5 mph80%30.06 "Hg14 mi
7:00 PM48 °FOvercast.5 mph79%30.05 "Hg19 mi
6:00 PM48 °FScattered clouds.8 mph75%30.03 "Hg22 mi
5:00 PM48 °FPartly sunny.6 mph77%30.01 "Hg22 mi
4:00 PM47 °FPassing clouds.8 mph79%30.00 "Hg28 mi
3:00 PM44 °FThunderstorms. Overcast.6 mph92%30.00 "Hg10 mi
2:00 PM49 °FThunderstorms. Partly sunny.6 mph82%29.99 "Hg19 mi
1:00 PM51 °FOvercast.5 mph83%29.98 "Hg9 mi
12:00 PM51 °FOvercast.6 mph79%29.99 "Hg6 mi
11:00 AM49 °FSprinkles. Overcast.5 mph86%30.02 "Hg5 mi
10:00 AM49 °FOvercast.7 mph82%30.02 "Hg7 mi
9:00 AM49 °FLight rain. Overcast.6 mph87%30.02 "Hg6 mi
8:00 AM49 °FOvercast.3 mph84%30.02 "Hg7 mi
7:00 AM49 °FOvercast.3 mph87%30.03 "Hg6 mi
6:00 AM49 °FDrizzle. Overcast.3 mph86%30.03 "Hg7 mi
5:00 AM49 °FPassing clouds.3 mph90%30.03 "Hg9 mi
Weather by CustomWeather, © 2014

See weather overviewHow to use our weather pages